Radiation Dose at Monitoring Post of Fukushima Daini Nuclear Power Station
Date,Time,MP-1(microSv/h),MP-2(microSv/h),MP-3(microSv/h),MP-4(microSv/h),MP-5(microSv/h),MP-6(microSv/h),MP-7(microSv/h),Wind Direction,Wind Velocity(m/s),Rain
2013/07/11,00:00,0.9,0.6,0.9,0.9,0.8,0.4,0.3,-,CALM,No
2013/07/11,00:10,0.9,0.6,0.9,0.9,0.8,0.4,0.3,-,CALM,No
2013/07/11,00:20,0.9,0.6,0.9,0.9,0.8,0.4,0.3,west-northwest,0.5,No
2013/07/11,00:30,0.9,0.6,0.9,0.9,0.8,0.4,0.3,-,CALM,No
2013/07/11,00:40,0.9,0.6,0.9,0.9,0.8,0.4,0.3,west,0.7,No
2013/07/11,00:50,0.9,0.6,0.9,0.9,0.8,0.4,0.3,west-northwest,0.7,No
2013/07/11,01:00,0.9,0.6,0.9,0.9,0.8,0.4,0.3,west-northwest,1.3,No
2013/07/11,01:10,0.9,0.6,0.9,0.9,0.8,0.4,0.3,west-northwest,1.3,No
2013/07/11,01:20,0.9,0.6,0.9,0.9,0.8,0.4,0.3,north,0.7,No
2013/07/11,01:30,0.9,0.6,0.9,0.9,0.8,0.4,0.3,northwest,0.8,No
2013/07/11,01:40,0.9,0.6,0.9,0.9,0.8,0.4,0.3,-,CALM,No
2013/07/11,01:50,0.9,0.6,0.9,0.9,0.8,0.4,0.3,east,0.7,No
2013/07/11,02:00,0.9,0.6,0.9,0.9,0.8,0.4,0.3,east-southeast,0.5,No
2013/07/11,02:10,0.9,0.6,0.9,0.9,0.8,0.4,0.3,south-southwest,4.0,Yes
2013/07/11,02:20,0.9,0.6,0.9,0.9,0.8,0.4,0.3,south-southwest,6.5,Yes
2013/07/11,02:30,0.9,0.6,0.9,0.9,0.8,0.4,0.3,south-southwest,5.1,Yes
2013/07/11,02:40,0.9,0.6,0.9,0.9,0.8,0.4,0.3,south-southwest,3.9,No
2013/07/11,02:50,0.9,0.6,0.9,0.9,0.8,0.4,0.3,south-southwest,2.1,No
2013/07/11,03:00,0.9,0.6,0.9,0.9,0.8,0.4,0.3,southwest,2.3,No
2013/07/11,03:10,0.9,0.6,0.9,0.9,0.8,0.4,0.3,west-southwest,1.3,No
2013/07/11,03:20,0.9,0.6,0.9,0.9,0.8,0.4,0.3,-,CALM,No
2013/07/11,03:30,0.9,0.6,0.9,0.9,0.8,0.4,0.3,south,0.5,No
2013/07/11,03:40,0.9,0.6,0.9,0.9,0.8,0.4,0.3,south-southwest,1.0,No
2013/07/11,03:50,0.9,0.6,0.9,0.9,0.8,0.4,0.3,south-southwest,1.3,No
2013/07/11,04:00,0.9,0.6,0.9,0.9,0.8,0.4,0.3,southwest,2.5,No
2013/07/11,04:10,0.9,0.6,0.9,0.9,0.8,0.4,0.3,southwest,4.2,No
2013/07/11,04:20,0.9,0.6,0.9,0.9,0.8,0.4,0.3,west-southwest,3.5,No
2013/07/11,04:30,0.9,0.6,0.9,0.9,0.8,0.4,0.3,west-southwest,3.1,No
2013/07/11,04:40,0.9,0.6,0.9,0.9,0.8,0.4,0.3,west-southwest,3.6,No
2013/07/11,04:50,0.9,0.6,0.9,0.9,0.8,0.4,0.3,west,3.1,No
2013/07/11,05:00,0.9,0.6,0.9,0.9,0.8,0.4,0.3,west-southwest,3.0,No
2013/07/11,05:10,0.9,0.6,0.9,0.9,0.8,0.4,0.3,southwest,3.1,No
2013/07/11,05:20,0.9,0.6,0.9,0.9,0.8,0.4,0.3,south-southwest,2.6,No
2013/07/11,05:30,0.9,0.6,0.9,0.9,0.8,0.4,0.3,south,2.5,No
2013/07/11,05:40,0.9,0.6,0.9,0.9,0.8,0.4,0.3,south-southeast,3.3,No
2013/07/11,05:50,0.9,0.6,0.9,0.9,0.8,0.4,0.3,south-southeast,3.8,No
2013/07/11,06:00,0.9,0.6,0.9,0.9,0.8,0.4,0.3,south-southeast,3.9,No
2013/07/11,06:10,0.9,0.6,0.9,0.9,0.8,0.4,0.3,south-southeast,4.6,No
2013/07/11,06:20,0.9,0.6,0.9,0.9,0.8,0.4,0.3,south,5.1,No
2013/07/11,06:30,0.9,0.6,0.9,0.9,0.8,0.4,0.3,south,5.7,No
2013/07/11,06:40,0.9,0.6,0.9,0.9,0.8,0.4,0.3,south,5.3,No
2013/07/11,06:50,0.9,0.6,0.9,0.9,0.8,0.4,0.3,south,4.7,No
2013/07/11,07:00,0.9,0.6,0.9,0.9,0.8,0.4,0.3,south,5.3,No
2013/07/11,07:10,0.9,0.6,0.9,0.9,0.8,0.4,0.3,south,4.4,No
2013/07/11,07:20,0.9,0.6,0.9,0.9,0.8,0.4,0.3,south,4.4,No
2013/07/11,07:30,0.9,0.6,0.9,0.9,0.8,0.4,0.3,south,3.9,No
2013/07/11,07:40,0.9,0.6,0.9,0.9,0.8,0.4,0.3,south,4.3,No
2013/07/11,07:50,0.9,0.6,0.9,0.9,0.8,0.4,0.3,south,5.4,No
2013/07/11,08:00,0.9,0.6,0.9,0.9,0.8,0.4,0.3,south,5.3,No
2013/07/11,08:10,0.9,0.6,0.9,0.9,0.8,0.4,0.3,south,5.1,No
2013/07/11,08:20,0.9,0.6,0.9,0.9,0.8,0.4,0.3,south,6.1,No
2013/07/11,08:30,0.9,0.6,0.9,0.9,0.8,0.4,0.3,south,5.6,No
2013/07/11,08:40,0.9,0.6,0.9,0.9,0.8,0.4,0.3,south,4.5,No
2013/07/11,08:50,0.9,0.6,0.9,0.9,0.8,0.4,0.3,south,4.8,No
2013/07/11,09:00,0.9,0.6,0.9,0.9,0.8,0.4,0.3,south,3.5,No
2013/07/11,09:10,0.9,0.6,0.9,0.9,0.8,0.4,0.3,south,4.8,No
2013/07/11,09:20,0.9,0.6,0.9,0.9,0.8,0.4,0.3,south,4.7,No
2013/07/11,09:30,0.9,0.6,0.9,0.9,0.8,0.4,0.3,south,3.9,No
2013/07/11,09:40,0.9,0.6,0.9,0.9,0.8,0.4,0.3,south,5.6,No
2013/07/11,09:50,0.9,0.6,0.9,0.9,0.8,0.4,0.3,south,5.7,No
2013/07/11,10:00,0.9,0.6,0.9,0.9,0.8,0.4,0.3,south,5.3,No
2013/07/11,10:10,0.9,0.6,0.9,0.9,0.8,0.4,0.3,south,5.3,No
2013/07/11,10:20,0.9,0.7,0.9,0.9,0.8,0.4,0.3,south-southeast,4.9,No
2013/07/11,10:30,0.9,0.6,0.9,0.9,0.8,0.4,0.3,south-southeast,5.2,No
2013/07/11,10:40,0.9,0.6,0.9,0.9,0.8,0.4,0.3,south-southeast,4.8,No
2013/07/11,10:50,0.9,0.6,0.9,0.9,0.8,0.4,0.3,south-southeast,4.8,No
2013/07/11,11:00,0.9,0.7,0.9,0.9,0.8,0.4,0.3,south-southeast,5.0,No
2013/07/11,11:10,0.9,0.7,0.9,0.9,0.8,0.4,0.3,south-southeast,5.6,No
2013/07/11,11:20,0.9,0.7,0.9,0.9,0.8,0.4,0.3,south-southeast,5.9,No
2013/07/11,11:30,0.9,0.6,0.9,0.9,0.8,0.4,0.3,south,6.2,No
2013/07/11,11:40,0.9,0.7,0.9,0.9,0.8,0.4,0.3,south-southeast,5.5,No
2013/07/11,11:50,0.9,0.6,0.9,0.9,0.8,0.4,0.3,south,5.7,No
2013/07/11,12:00,0.9,0.7,0.9,0.9,0.8,0.4,0.3,south,5.5,No
2013/07/11,12:10,0.9,0.7,0.9,0.9,0.8,0.4,0.3,south,5.7,No
2013/07/11,12:20,0.9,0.7,0.9,0.9,0.8,0.4,0.3,south-southwest,5.3,No
2013/07/11,12:30,0.9,0.6,0.9,0.9,0.8,0.4,0.3,south,5.3,No
2013/07/11,12:40,0.9,0.6,0.9,0.9,0.8,0.4,0.3,south,6.0,No
2013/07/11,12:50,0.9,0.6,0.9,0.9,0.8,0.4,0.3,south,7.0,No
2013/07/11,13:00,0.9,0.7,0.9,0.9,0.8,0.4,0.3,south,7.7,No
2013/07/11,13:10,0.9,0.7,0.9,0.9,0.8,0.4,0.3,south,6.9,No
2013/07/11,13:20,0.9,0.6,0.9,0.9,0.8,0.4,0.3,south-southwest,6.7,No
2013/07/11,13:30,0.9,0.7,0.9,0.9,0.8,0.4,0.3,south,6.8,No
2013/07/11,13:40,0.9,0.7,0.9,0.9,0.8,0.4,0.3,south,7.4,No
2013/07/11,13:50,0.9,0.6,0.9,0.9,0.8,0.4,0.3,south,6.8,No
2013/07/11,14:00,0.9,0.6,0.9,0.9,0.8,0.4,0.3,south,6.7,No
2013/07/11,14:10,0.9,0.6,0.9,0.9,0.8,0.4,0.3,south,6.9,No
2013/07/11,14:20,0.9,0.6,0.9,0.9,0.8,0.4,0.3,south-southwest,6.4,No
2013/07/11,14:30,0.9,0.6,0.9,0.9,0.8,0.4,0.3,south,6.2,No
2013/07/11,14:40,0.9,0.7,0.9,0.9,0.8,0.4,0.3,south,5.9,No
2013/07/11,14:50,0.9,0.7,0.9,0.9,0.8,0.4,0.3,south-southwest,4.1,No
2013/07/11,15:00,0.9,0.7,0.9,0.9,0.8,0.4,0.3,south-southwest,2.7,No
2013/07/11,15:10,0.9,0.7,0.9,0.9,0.8,0.4,0.3,south-southwest,3.0,No
2013/07/11,15:20,0.9,0.6,0.9,0.9,0.8,0.4,0.3,south-southwest,3.6,No
2013/07/11,15:30,0.9,0.7,0.9,0.9,0.8,0.4,0.3,south-southwest,4.3,No
2013/07/11,15:40,0.9,0.6,0.9,0.9,0.8,0.4,0.3,south-southwest,5.2,No
2013/07/11,15:50,0.9,0.6,0.9,0.9,0.8,0.4,0.3,south-southwest,4.7,No
2013/07/11,16:00,0.9,0.6,0.9,0.9,0.8,0.4,0.3,south-southwest,5.5,No
2013/07/11,16:10,0.9,0.6,0.9,0.9,0.8,0.4,0.3,south,5.7,No
2013/07/11,16:20,0.9,0.6,0.9,0.9,0.8,0.4,0.3,south-southwest,4.6,No
2013/07/11,16:30,0.9,0.6,0.9,0.9,0.8,0.4,0.3,south-southwest,4.4,No
2013/07/11,16:40,0.9,0.6,0.9,0.9,0.8,0.4,0.3,south-southwest,4.8,No
2013/07/11,16:50,0.9,0.6,0.9,0.9,0.8,0.4,0.3,south-southwest,4.8,No
2013/07/11,17:00,0.9,0.6,0.9,0.9,0.8,0.4,0.3,south-southwest,4.7,No
2013/07/11,17:10,0.9,0.6,0.9,0.9,0.8,0.4,0.3,south,5.0,No
2013/07/11,17:20,0.9,0.6,0.9,0.9,0.8,0.4,0.3,south-southwest,5.5,No
2013/07/11,17:30,0.9,0.6,0.9,0.9,0.8,0.4,0.3,south-southwest,5.2,No
2013/07/11,17:40,0.9,0.6,0.9,0.9,0.8,0.4,0.3,south-southwest,5.4,No
2013/07/11,17:50,0.9,0.6,0.9,0.9,0.8,0.4,0.3,south-southwest,4.5,No
2013/07/11,18:00,0.9,0.6,0.9,0.9,0.8,0.4,0.3,south,4.2,No
2013/07/11,18:10,0.9,0.6,0.9,0.9,0.8,0.4,0.3,south-southwest,4.8,No
2013/07/11,18:20,0.9,0.6,0.9,0.9,0.8,0.4,0.3,south-southwest,5.2,No
2013/07/11,18:30,0.9,0.6,0.9,0.9,0.8,0.4,0.3,south-southwest,3.9,No
2013/07/11,18:40,0.9,0.6,0.9,0.9,0.8,0.4,0.3,south,3.3,No
2013/07/11,18:50,0.9,0.6,0.9,0.9,0.8,0.4,0.3,south-southwest,3.0,No
2013/07/11,19:00,0.9,0.6,0.9,0.9,0.8,0.4,0.3,south-southwest,2.1,No
2013/07/11,19:10,0.9,0.6,0.9,0.9,0.8,0.4,0.3,south-southwest,1.6,No
2013/07/11,19:20,0.9,0.6,0.9,0.9,0.8,0.4,0.3,south,2.8,No
2013/07/11,19:30,0.9,0.6,0.9,0.9,0.8,0.4,0.3,south-southeast,1.4,No
2013/07/11,19:40,0.9,0.6,0.9,0.9,0.8,0.4,0.3,south-southeast,1.0,No
2013/07/11,19:50,0.9,0.6,0.9,0.9,0.8,0.4,0.3,south,1.7,No
2013/07/11,20:00,0.9,0.6,0.9,0.9,0.8,0.4,0.3,southeast,1.0,No
2013/07/11,20:10,0.9,0.6,0.9,0.9,0.8,0.4,0.3,east-southeast,0.7,No
2013/07/11,20:20,0.9,0.6,0.9,0.9,0.8,0.4,0.3,-,CALM,No
2013/07/11,20:30,0.9,0.6,0.9,0.9,0.8,0.4,0.3,-,CALM,No
2013/07/11,20:40,0.9,0.6,0.9,0.9,0.8,0.4,0.3,north-northeast,1.4,No
2013/07/11,20:50,0.9,0.6,0.9,0.9,0.8,0.4,0.3,north-northeast,2.1,No
2013/07/11,21:00,0.9,0.6,0.9,0.9,0.8,0.4,0.3,north,1.4,No
2013/07/11,21:10,0.9,0.6,0.9,0.9,0.8,0.4,0.3,northwest,2.3,No
2013/07/11,21:20,0.9,0.6,0.9,0.9,0.8,0.4,0.3,northwest,4.8,No
2013/07/11,21:30,0.9,0.6,0.9,0.9,0.8,0.4,0.3,northwest,5.4,No
2013/07/11,21:40,0.9,0.6,0.9,0.9,0.8,0.4,0.3,northwest,4.4,No
2013/07/11,21:50,0.9,0.6,0.9,0.9,0.8,0.4,0.3,northwest,4.8,No
2013/07/11,22:00,0.9,0.6,0.9,0.9,0.8,0.4,0.3,northwest,5.2,No
2013/07/11,22:10,0.9,0.6,0.9,0.9,0.8,0.4,0.3,north-northwest,5.6,No
2013/07/11,22:20,0.9,0.6,0.9,0.9,0.8,0.4,0.3,northwest,5.1,No
2013/07/11,22:30,0.9,0.6,0.9,0.9,0.8,0.4,0.3,northwest,4.8,No
2013/07/11,22:40,0.9,0.6,0.9,0.9,0.8,0.4,0.3,northwest,5.5,No
2013/07/11,22:50,0.9,0.6,0.9,0.9,0.8,0.4,0.3,northwest,4.7,No
2013/07/11,23:00,0.9,0.6,0.9,0.9,0.8,0.4,0.3,northwest,3.7,No
2013/07/11,23:10,0.9,0.6,0.9,0.9,0.8,0.4,0.3,-,CALM,No
2013/07/11,23:20,0.9,0.6,0.9,0.9,0.8,0.4,0.3,north,0.8,No
2013/07/11,23:30,0.9,0.6,0.9,0.9,0.8,0.4,0.3,north-northeast,1.1,No
2013/07/11,23:40,0.9,0.6,0.9,0.9,0.8,0.4,0.3,northeast,1.6,No
2013/07/11,23:50,0.9,0.6,0.9,0.9,0.8,0.4,0.3,northeast,2.1,No
